Weather History for Belize, Belize

Change the Weather History Date:

Monday, October 22, 2012

  Actual Average Record
Temperature  
Mean Temperature 80 °F -  
Max Temperature 86 °F 86 °F 89 °F (2004)
Min Temperature 75 °F 72 °F 69 °F (2011)
Cooling Degree Days 16    
Growing Degree Days 30 (Base 50)    
Moisture  
Dew Point 75 °F    
Average Humidity 83    
Maximum Humidity 96    
Minimum Humidity 65    
Precipitation  
Precipitation 0.51 in 0.27 in - ()
Sea Level Pressure  
Sea Level Pressure 29.85 in    
Wind  
Wind Speed 4 mph ()    
Max Wind Speed 9 mph    
Max Gust Speed -    
Visibility 7.3 miles    
Events Rain    
Averages and records for this station are not official NWS values.
T = Trace of Precipitation, MM = Missing Value Source: Averaged Metar Reports

Daily Weather History Graph

Daily Weather History Graph

Search for Another Location

Airport:

Trip Planner

Search our weather history database for the weather conditions in past years. The results will help you decide how hot, cold, wet, or windy it might be!

Date:

Astronomy

Oct. 22, 2012 Rise Set
Actual Time 5:48 AM CST 5:26 PM CST
Civil Twilight 5:26 AM CST 5:48 PM CST
Nautical Twilight 5:00 AM CST 6:13 PM CST
Astronomical Twilight 4:35 AM CST 6:39 PM CST
Moon 12:40 PM CST (10/22) No Moon Set
Length of Visible Light 12h 22m
Length of Day
11h 37m
First Quarter, 57% of the Moon is Illuminated
Oct 22
First Quarter
Oct 29
Full
Nov 6
Last Quarter
Nov 13
New
Nov 20
First Quarter

Hourly Weather History & Observations

Time (CST) Temp. Heat Index Dew Point Humidity Pressure Visibility Wind Dir Wind Speed Gust Speed Precip Events Conditions
12:00 AM 76 °F - 75 °F 95% 29.86 in 12 mi Calm Calm - -   Partly Cloudy
5:00 AM 75.2 °F - 73.4 °F 94% 29.83 in 6.2 mi NW 4.6 mph - N/A   Partly Cloudy
6:00 AM 75.2 °F - 73.4 °F 94% 29.86 in 6.2 mi WNW 5.8 mph - N/A   Mostly Cloudy
7:00 AM 75.2 °F - 73.4 °F 94% 29.89 in 6.2 mi North 6.9 mph - N/A   Mostly Cloudy
8:00 AM 77.0 °F - 75.2 °F 94% 29.92 in 5.0 mi NNE 9.2 mph - N/A Rain Light Rain Showers
9:00 AM 76 °F - 75 °F 96% 29.93 in 5 mi East 5.8 mph - - Rain Light Rain
9:00 AM 77.0 °F - 75.2 °F 94% 29.92 in 5.0 mi East 5.8 mph - N/A Rain Rain
10:00 AM - - - N/A% 29.92 in 6.2 mi NNE 3.5 mph - N/A   Mostly Cloudy
11:00 AM 80.6 °F 86.2 °F 75.2 °F 84% 29.89 in 6.2 mi NNE 3.5 mph - N/A   Mostly Cloudy
12:00 PM 84 °F - 75 °F 68% 29.87 in 12 mi North 3.5 mph - -   Partly Cloudy
12:00 PM 84.2 °F 92.3 °F 75.2 °F 74% 29.87 in 6.2 mi North 3.5 mph - N/A   Scattered Clouds
1:00 PM 86.0 °F 95.1 °F 75.2 °F 70% 29.83 in 6.2 mi ENE 5.8 mph - N/A   Scattered Clouds
2:00 PM 86.0 °F 96.9 °F 77.0 °F 74% 29.80 in 6.2 mi East 6.9 mph - N/A   Scattered Clouds
3:00 PM 86 °F - 76 °F 65% 29.79 in 12 mi NE 6.9 mph - -   Partly Cloudy
3:00 PM 86.0 °F 95.1 °F 75.2 °F 70% 29.78 in 6.2 mi NE 6.9 mph - N/A   Scattered Clouds
4:00 PM 86.0 °F 96.9 °F 77.0 °F 74% 29.79 in 6.2 mi NE 6.9 mph - N/A   Scattered Clouds
5:00 PM 84.2 °F 94.1 °F 77.0 °F 79% 29.80 in 6.2 mi NE 6.9 mph - N/A   Mostly Cloudy
6:00 PM 82 °F - 78 °F 83% 29.83 in 12 mi NE 4.6 mph - -   Scattered Clouds
6:00 PM 82.4 °F 90.9 °F 77.0 °F 84% 29.82 in 6.2 mi NE 4.6 mph - N/A   Mostly Cloudy
9:00 PM 80 °F - 76 °F 84% 29.88 in 9 mi Calm Calm - - Rain Light Rain Showers